Regional Weather Roundup
Issued by NWS

Home | Current Version | Previous Version | Text Only | Print | Product List | Glossary On
Versions: 1 2 3 4 5 6 7 8 9 10 11 12 13 14 15 16 17 18 19 20 21 22 23 24 25 26 27 28 29 30 31 32 33 34 35 36 37 38 39 40 41 42 43 44 45 46 47 48 49 50
000
ASUS45 KBOU 301207
RWRCO

WEATHER ROUNDUP FOR COLORADO
NATIONAL WEATHER SERVICE DENVER/BOULDER CO
600 AM MDT SUN AUG 30 2015

NOTE: "FAIR" INDICATES FEW OR NO CLOUDS BELOW 12000 FEET WITH NO
SIGNIFICANT WEATHER AND/OR OBSTRUCTIONS TO VISIBILITY.

COZ001>005-013-030-031-301300-
...NORTHWEST COLORADO...

CITY           SKY/WX    TMP DP  RH WIND       PRES   REMARKS
CRAIG          PTCLDY    45  40  82 S3        30.19R
HAYDEN         NOT AVBL
MEEKER         PTCLDY    46  40  79 E5        30.20S
MOUNT WERNER   NOT AVBL
STEAMBOAT SPGS PTCLDY    46  39  75 CALM      30.24S
WALDEN         PTCLDY    37  32  81 CALM      30.33R
$$

COZ006>008-011-301300-
...WEST CENTRAL VALLEYS...

CITY           SKY/WX    TMP DP  RH WIND       PRES   REMARKS
GRAND JUNCTION CLEAR     60  41  49 E5        30.08S
MONTROSE       PTCLDY    57  43  59 S8        30.21R
EAGLE          CLEAR     48  39  71 CALM      30.30S
RIFLE          PTCLDY    53  43  68 CALM      30.17S
DELTA          CLEAR     60  44  55 E7        30.16S
NUCLA          CLEAR     59  39  47 E3        30.23S
$$

COZ017>023-064>068-301300-
...SOUTHWEST COLORADO...

CITY           SKY/WX    TMP DP  RH WIND       PRES   REMARKS
DURANGO        PTCLDY    53  45  74 CALM      30.31S
CORTEZ         CLEAR     54  47  77 CALM      30.22S
PAGOSA SPRINGS PTCLDY    49  44  82 CALM      30.39F
TELLURIDE      CLEAR     58  39  49 CALM      30.47S
WOLF CREEK PAS CLEAR     43  37  81 SW15      30.69S
$$

COZ009-010-012-014-032>034-037-058>063-301300-
...CENTRAL COLORADO...

CITY           SKY/WX    TMP DP  RH WIND       PRES   REMARKS
ASPEN          CLEAR     50  38  63 S6        30.33S
BUENA VISTA    CLEAR     47  38  71 NW6       30.38S
COPPER MTN     CLEAR     54  28  37 SW12      30.64S
BERTHOUD PASS  FAIR      45  32  61 W29G37    30.66S
COTTONWOOD PAS CLEAR     55  36  47 CALM      30.50R
GUNNISON       CLEAR     43  36  75 NE3       30.41R
KREMMLING      CLEAR     41  37  87 CALM      30.34S
LEADVILLE      CLEAR     38  35  89 CALM      30.48F
MONARCH PASS   PTCLDY    45  36  70 SW13      30.74S
SALIDA         CLEAR     56  41  56 NW12      30.42S
SUNLIGHT       CLEAR     52  32  46 CALM      30.55S
WILKERSON PASS CLEAR     46  36  66 SW8       30.61R
$$

COZ069>075-301300-
...SAN LUIS VALLEY/SANGRE DE CRISTO MOUNTAINS...

CITY           SKY/WX    TMP DP  RH WIND       PRES   REMARKS
ALAMOSA        CLEAR     50  41  71 E6        30.36S
LA VETA PASS   CLEAR     46  37  71 MISG      30.50S
SAGUACHE       PTCLDY    46  41  81 N9        30.40S
$$

COZ035-036-038>040-301300-
...NORTHERN COLORADO FRONT RANGE...

CITY           SKY/WX    TMP DP  RH WIND       PRES   REMARKS
DENVER INTL AP PTCLDY    64  41  42 W9        30.10R
DMNS CITY PARK   N/A     61  45  54 E7        30.11R
AURORA         NOT AVBL
FRONT RANGE AP NOT AVBL
ERIE MUNI ARPT PTCLDY    54  47  78 S6        30.09S
BOULDER MUN AP PTCLDY    59  48  67 CALM      30.09S
CENTENNIAL     PTCLDY    66  41  40 SW10      30.14S
BROOMFIELD     PTCLDY    61  45  55 CALM      30.12S
FORT COLLINS   CLEAR     55  45  67 N5        30.09S
LONGMONT       CLEAR     55  46  71 W3        30.10S
$$

COZ041-046-047-076>085-087-088-301300-
...PIKES PEAK/PALMER DIVIDE AND SOUTHERN FOOTHILLS...

CITY           SKY/WX    TMP DP  RH WIND       PRES   REMARKS
COLO. SPRINGS  MOCLDY    54  44  69 N6        30.20S
A. F. ACADEMY  NOT AVBL
ELLICOTT       PTCLDY   N/A N/A N/A CALM      30.18F
FALCON         MOCLDY    55  47  73 MISG      30.24F
FORT CARSON    PTCLDY    54  43  67 NW7       30.17
LIMON          PTCLDY    45  43  93 CALM      30.15F
MONUMENT HILL  MOCLDY    61  37  41 SW7       30.24S
TRINIDAD       CLEAR     62  50  64 SW9       30.18F
$$

COZ042>045-048>051-090-091-301300-
...NORTHEAST COLORADO...

CITY           SKY/WX    TMP DP  RH WIND       PRES   REMARKS
GREELEY ARPT   PTCLDY    52  45  76 NW9       30.07S
AKRON          PTCLDY    63  45  51 S12       30.07F
BURLINGTON     CLEAR     60  45  57 S12       30.10F
WRAY           PTCLDY    64  46  51 W7        30.05S
STERLING       PTCLDY    55  46  71 SW6       30.02S
HOLYOKE        PTCLDY    59  50  72 S8        30.05S
FORT MORGAN    PTCLDY    60  41  50 CALM      30.06S
$$

COZ086-089-092>099-301300-
...SOUTHEAST COLORADO...

CITY           SKY/WX    TMP DP  RH WIND       PRES   REMARKS
PUEBLO         PTCLDY    59  44  57 NW3       30.10S
LA JUNTA       PTCLDY    59  45  59 CALM      30.08S
LAMAR          CLEAR     62  48  60 CALM      30.06F
SPRINGFIELD    NOT AVBL
$$




USA.gov is the U.S. government's official web portal to all federal, state and local government web resources and services.